RH
70 75 74 76 79 81 77 80 88 80 77 78 81 80 79 78 77 76 76 75 74 66 66 70 66 62 47 58 56 38 49 46 37 39 47 45 47 52 60 52 47 53 51 44 44 43 42
73 72 75 74 75 76 77 79 80 83 80 78 79 81 83 83 82 83 83 79 69 68 67 64 60 56 49 71 40 41 39 41 43 43 48 48 53 51 46 52 52 54 49 44 43 42 41
73 71 73 70 72 75 75 78 81 82 79 79 79 81 84 84 83 81 79 74 70 66 62 66 56 39 48 58 44 42 40 45 47 45 48 49 54 45 50 53 46 46 43 43 45 44 44
73 73 70 71 72 74 74 76 79 74 70 66 68 72 73 75 77 77 74 68 60 56 57 62 50 48 58 42 47 39 39 41 42 44 47 46 44 47 49 51 49 48 51 46 44 41 41
67 70 68 72 72 73 74 73 72 70 66 64 69 76 77 77 74 68 67 63 65 61 56 54 43 49 59 41 43 43 42 46 44 43 44 36 48 61 57 69 66 64 69 67 41 58 53
66 71 67 70 74 74 75 74 74 72 70 72 72 76 75 76 76 68 68 63 58 54 43 32 37 41 47 51 49 43 44 45 47 46 46 52 60 66 67 82 68 77 71 59 54 52 65
68 72 76 67 72 75 75 74 73 74 74 72 73 79 77 75 77 73 63 56 50 55 58 58 60 56 54 49 44 43 47 48 47 54 61 60 76 81 66 65 59 60 75 77 67 63 70
70 71 74 70 72 74 75 73 72 74 74 74 74 78 79 74 70 66 69 75 81 59 61 52 51 52 51 56 48 43 47 50 56 71 61 66 72 62 58 60 67 78 84 82 73 68 72
70 76 76 69 71 75 76 74 71 70 71 74 78 78 77 76 67 70 78 80 75 62 63 45 52 52 54 49 55 50 51 57 60 67 71 68 62 53 58 67 73 76 87 84 86 77 72
77 73 77 70 73 76 77 77 75 73 73 75 77 80 78 70 64 72 76 75 74 54 76 40 49 47 47 52 46 42 48 58 57 74 78 70 58 58 69 74 72 86 76 78 82 88 97
78 77 78 74 75 78 78 77 76 76 76 78 80 79 75 61 68 65 73 76 67 46 59 33 51 43 46 42 46 40 48 50 64 65 70 70 67 68 74 72 66 76 76 86 91 88 94
72 74 74 74 77 77 78 78 76 77 77 78 80 79 69 74 79 82 82 77 59 70 41 61 56 55 50 49 47 51 52 50 56 63 67 69 62 64 71 66 73 81 88 81 90 89 99
76 76 76 75 76 77 78 78 77 75 76 78 78 76 73 73 71 84 77 67 76 64 40 40 64 62 66 60 56 65 62 73 84 80 88 74 71 64 60 82 79 78 86 90 87 98 93
79 77 74 75 78 78 77 78 80 76 76 79 78 72 72 71 86 77 68 65 46 51 62 55 71 64 67 68 69 70 70 81 66 83 95 89 63 80 69 82 80 100 86 90 88 94 95
82 81 79 76 75 76 78 80 81 79 78 80 69 79 71 66 74 75 59 84 51 56 55 67 65 72 58 72 70 82 82 86 76 79 73 90 70 73 75 78 75 82 97 79 94 93 98
83 83 82 80 79 77 76 78 81 78 77 72 76 75 66 72 78 67 76 72 69 61 61 71 62 66 77 80 65 83 86 63 69 68 79 86 75 64 70 75 87 84 78 91 97 96 100
83 83 83 83 83 82 78 76 78 79 72 69 73 59 60 76 72 71 88 80 67 59 62 71 70 66 65 71 77 84 79 65 60 70 76 85 85 66 79 84 88 85 95 91 91 92 99
85 84 84 85 86 85 82 78 75 80 70 77 83 64 64 72 74 94 82 69 58 61 65 68 68 66 67 64 75 86 86 73 57 64 79 79 89 98 71 71 70 86 90 88 93 77 93
85 85 86 88 90 89 85 81 78 78 78 80 74 76 74 63 86 80 73 66 66 67 70 66 65 60 58 64 69 72 78 64 65 64 74 74 86 93 50 68 84 91 90 85 85 90 96
86 85 87 90 92 92 88 85 83 79 79 78 75 80 67 77 79 71 75 68 70 66 63 60 60 59 65 72 64 67 70 66 65 61 58 63 86 75 55 42 78 86 79 89 88 97 95
88 88 88 89 91 91 90 87 85 82 75 72 79 77 73 84 56 70 73 68 66 68 64 61 66 62 63 74 73 74 67 79 71 60 79 74 92 92 81 74 73 72 66 66 96 85 82
86 86 88 90 90 91 92 89 85 82 70 76 63 63 73 75 66 70 70 62 57 56 61 66 66 63 66 70 58 60 63 71 70 86 81 88 92 95 90 74 79 86 78 75 70 67 70
88 87 88 90 91 92 93 90 85 84 71 76 84 78 65 69 67 65 60 54 56 56 53 50 61 67 69 63 61 59 58 60 64 81 86 91 97 93 95 78 76 76 70 64 71 74 67
88 85 87 88 91 93 93 92 84 83 79 80 82 82 71 71 73 60 58 55 52 58 53 54 59 63 57 62 60 74 80 74 75 80 77 93 90 86 97 82 48 38 52 58 60 58 57
89 89 88 88 89 92 94 93 88 80 78 83 89 80 80 76 71 65 65 62 55 59 65 59 55 58 63 66 69 70 75 80 82 82 81 78 82 90 99 97 62 40 59 60 64 45 50
93 92 90 89 89 90 91 93 93 81 77 92 93 87 84 77 80 63 55 58 63 64 62 61 63 67 62 70 69 69 75 71 80 95 85 82 80 88 96 99 72 32 62 63 47 45 36
88 92 90 88 88 88 89 90 93 93 79 79 86 76 73 78 76 71 64 61 54 62 61 61 66 74 70 77 78 84 71 64 70 89 95 91 91 94 89 88 77 54 55 63 49 34 30
88 91 92 88 86 85 86 87 90 93 88 80 83 80 73 81 79 71 59 54 55 59 60 60 63 77 82 77 79 78 78 65 72 65 88 89 90 93 80 84 90 55 58 48 34 37 44
88 90 92 90 88 78 78 86 88 92 94 86 90 81 73 80 78 74 69 58 45 48 56 63 63 76 73 70 79 71 70 75 67 67 71 70 64 73 73 68 47 53 48 46 50 48 46
Wind_Speed
25 26 27 27 28 28 27 26 24 22 22 24 24 24 21 20 19 19 18 17 16 11 7 7 5 4 6 8 5 8 15 14 7 7 7 4 6 2 5 3 3 4 1 2 2 2 2
24 25 25 26 26 26 27 25 24 22 23 25 23 21 20 19 17 16 15 13 11 9 9 14 8 7 8 10 8 8 7 8 8 7 8 8 3 2 6 4 4 1 1 3 2 1 1
24 23 24 25 25 25 24 23 22 22 23 23 22 21 17 16 14 13 12 10 8 8 8 9 1 5 16 6 5 7 8 5 5 4 5 3 2 5 2 3 3 1 4 3 2 2 1
22 22 22 23 23 22 22 21 20 21 21 21 20 18 17 16 14 11 10 9 8 7 6 7 9 6 6 3 3 9 8 6 8 5 2 3 4 7 5 0 6 5 5 3 4 7 3
22 22 21 22 21 21 20 20 19 18 17 18 18 16 15 14 11 10 10 8 6 4 6 4 8 7 3 7 6 6 5 4 6 5 6 3 6 5 6 4 5 7 1 1 4 5 5
20 21 21 19 19 18 18 18 18 18 17 16 16 15 16 17 12 9 7 3 9 7 7 3 3 6 6 5 4 5 5 4 4 4 6 9 7 5 5 6 4 2 2 3 4 5 5
18 20 20 19 19 18 16 16 17 17 16 15 15 14 15 16 11 9 4 4 6 9 11 6 1 5 2 6 2 7 5 5 5 8 5 6 9 3 1 2 3 3 0 3 5 1 6
17 18 19 19 19 18 16 16 16 16 16 16 15 13 12 11 14 8 6 6 2 2 6 7 4 4 2 1 6 14 7 6 7 5 4 8 4 1 0 3 3 3 2 5 6 2 4
16 17 18 18 18 18 16 14 14 15 16 16 15 12 10 7 4 9 7 4 3 2 7 5 3 4 4 6 5 9 6 3 5 7 6 6 2 1 3 3 4 3 1 3 4 9 1
15 17 17 18 17 17 16 14 13 13 14 13 13 14 12 3 8 1 4 4 3 2 7 10 7 5 4 2 5 2 4 2 6 3 2 3 1 1 2 2 4 2 1 2 4 6 4
18 18 17 17 17 17 16 14 13 12 11 12 12 13 10 8 6 4 0 3 1 4 8 6 6 2 5 6 2 7 3 5 3 2 4 3 2 0 0 0 3 5 2 2 2 2 6
17 17 17 17 18 17 17 15 13 12 11 10 11 11 5 5 4 2 3 1 4 10 2 5 4 6 4 6 5 7 5 7 2 3 3 1 1 2 3 3 3 2 3 5 2 3 3
15 16 16 16 16 17 17 17 15 13 12 11 11 9 6 2 0 4 3 4 9 9 3 5 2 4 1 4 4 6 5 7 4 5 5 5 1 1 1 2 3 6 6 5 7 3 7
15 15 15 15 15 15 16 16 16 14 11 10 9 6 4 2 1 1 4 8 10 2 3 1 4 3 4 6 4 6 3 3 4 4 3 4 8 2 1 2 5 2 6 6 5 3 6
13 14 14 15 16 16 16 16 16 15 12 8 4 3 3 4 3 3 7 8 7 5 3 5 2 6 3 0 1 4 3 4 3 2 5 3 6 2 1 1 5 3 0 3 3 2 4
12 12 13 15 15 16 17 17 17 15 12 6 3 3 3 5 2 5 7 3 3 3 3 2 3 3 1 4 5 5 1 3 2 1 2 3 5 1 1 2 3 4 5 2 1 4 6
12 12 12 13 14 15 16 17 18 18 12 4 4 4 4 4 3 7 5 3 2 1 1 2 3 3 2 1 1 1 2 4 2 3 3 4 4 6 1 6 8 5 2 3 2 3 4
12 12 13 13 13 14 16 17 18 18 12 7 3 3 3 2 6 2 2 2 3 3 1 1 2 1 3 3 3 1 4 7 5 5 3 4 4 5 10 2 4 4 6 5 5 6 4
12 12 12 13 13 13 14 16 17 17 11 3 3 1 2 4 4 2 2 1 1 2 2 3 2 4 2 3 0 5 4 3 6 5 6 5 1 5 8 5 2 4 5 5 3 3 7
11 12 12 12 11 12 14 15 16 18 9 4 3 3 5 5 1 5 2 1 1 1 1 2 2 1 1 2 4 2 3 3 6 5 5 5 3 7 7 6 4 5 4 6 6 3 5
9 10 10 11 11 11 13 15 17 18 8 4 4 0 3 3 4 2 2 1 2 2 2 2 1 4 5 2 2 4 4 1 2 5 4 4 5 5 12 17 15 18 17 12 12 13 9
8 10 10 9 10 11 10 12 16 19 6 6 3 3 2 1 2 1 1 4 4 2 5 3 3 2 5 5 8 6 5 4 6 1 5 2 5 3 9 8 8 15 17 19 21 23 23
7 9 11 10 10 10 10 10 13 18 8 4 2 2 4 2 1 2 3 3 4 3 3 4 6 2 4 10 7 7 6 4 5 9 7 5 1 4 8 5 14 9 10 19 9 6 20
5 7 9 11 10 9 9 8 9 11 9 3 1 2 3 2 1 4 2 5 4 4 3 2 5 5 4 1 3 1 1 5 5 6 6 7 4 2 7 9 4 5 3 6 17 10 20
5 5 7 9 10 9 8 7 5 7 8 4 1 3 2 3 2 5 4 5 2 1 3 3 4 3 2 4 3 5 2 2 2 4 6 4 4 3 2 3 13 7 2 8 9 11 20
8 6 6 6 8 9 9 8 5 2 4 3 1 2 3 2 5 2 2 2 3 2 4 2 1 1 4 2 1 2 4 2 2 2 4 4 2 4 1 2 7 4 1 3 4 8 8
9 6 6 5 6 8 9 8 6 3 3 2 1 3 2 1 5 3 4 3 3 2 2 1 2 1 2 2 3 4 5 4 4 6 6 4 3 11 8 6 13 14 5 1 0 8 2
9 8 7 7 5 8 8 8 8 6 7 4 1 4 2 2 6 5 3 3 1 2 3 3 1 0 2 3 3 4 4 5 2 5 8 10 9 6 6 6 14 9 6 10 8 3 2
10 10 8 8 8 11 10 8 9 8 5 7 2 1 2 2 5 4 6 6 5 4 4 3 2 3 5 2 3 2 4 2 4 5 0 5 10 8 14 14 5 9 5 7 2 5 7
Wind_Direction
45 40 39 40 42 49 55 54 76 75 75 79 82 87 87 91 102 110 113 111 107 99 59 38 61 67 60 49 48 300 329 345 13 20 46 56 55 53 88 83 61 73 9 50 32 322 276
41 45 46 43 41 45 50 53 59 66 71 75 75 81 85 88 89 94 100 100 100 86 37 53 75 72 67 74 271 316 341 358 21 36 27 39 94 84 87 55 60 35 345 308 333 244 6
39 40 47 50 48 43 47 51 53 60 66 67 70 68 69 80 88 99 102 102 84 75 45 34 77 86 61 72 328 314 14 12 7 35 52 25 327 75 90 80 346 23 12 353 6 316 65
50 43 39 47 51 51 50 53 55 56 61 62 60 60 61 61 60 62 62 74 64 31 16 7 38 61 85 297 306 23 348 353 7 24 58 17 63 92 57 143 23 42 45 27 355 10 9
46 45 46 40 41 45 50 52 52 56 59 51 47 50 51 50 52 58 59 48 18 12 27 82 40 85 43 330 9 333 18 0 331 360 18 39 57 71 26 60 20 13 206 337 327 19 343
44 42 43 45 45 46 44 45 46 45 44 40 36 31 35 34 37 52 46 4 16 45 9 39 77 51 9 323 317 339 331 12 28 349 18 34 45 64 33 52 223 308 360 320 267 332 358
40 42 38 43 41 45 49 47 43 37 35 36 34 33 35 32 42 39 37 12 22 9 30 70 333 100 30 309 15 354 354 356 27 49 54 11 62 77 82 74 121 111 29 286 271 304 335
38 39 41 41 42 43 43 38 35 41 36 25 22 27 35 32 35 47 66 67 37 157 64 19 32 55 51 333 23 355 14 61 45 59 6 24 77 247 308 63 75 52 329 300 285 278 334
39 41 38 44 47 42 39 39 44 38 33 26 16 11 19 26 59 42 75 60 348 23 85 1 6 29 348 35 37 342 26 22 63 46 26 111 160 2 63 36 37 349 304 334 256 320 289
41 40 40 38 40 41 41 34 28 31 31 28 22 10 4 7 48 353 44 339 1 76 79 333 350 5 21 59 44 348 12 76 36 121 71 72 328 68 72 67 107 331 323 332 333 34 284
42 40 37 38 33 33 34 34 25 18 19 19 18 17 28 54 146 62 279 329 80 59 62 297 327 303 6 77 283 351 354 27 80 109 90 246 154 121 350 281 133 232 343 296 117 264 31
40 40 38 35 29 27 27 27 24 18 11 13 15 13 49 19 49 31 330 350 47 43 301 359 347 1 37 12 20 326 24 37 44 62 15 91 350 163 204 77 63 45 27 20 1 76 354
37 35 32 33 32 26 23 20 17 13 10 2 3 26 63 57 55 328 1 48 39 91 7 299 342 28 93 356 26 25 30 19 54 49 354 343 226 233 149 121 30 65 50 331 348 343 233
35 36 33 29 25 25 23 18 14 9 2 356 355 36 10 84 316 58 52 51 73 226 211 149 23 20 65 6 35 356 68 30 34 78 87 82 324 174 218 180 175 154 133 152 246 277 283
30 29 31 30 24 20 18 17 15 7 355 350 50 5 26 328 350 58 75 56 181 204 168 148 64 71 345 337 173 57 356 179 206 94 124 89 282 279 246 114 119 250 85 184 102 239 279
23 25 25 25 23 19 16 13 11 8 0 4 81 49 308 318 20 64 73 130 124 189 117 115 124 131 165 294 42 54 20 247 163 105 125 186 337 291 45 79 39 138 159 54 27 303 294
18 19 19 21 20 16 13 11 11 8 3 86 55 56 262 342 70 49 101 202 164 109 137 118 167 137 191 215 150 322 241 286 186 135 90 136 114 283 137 194 181 169 203 183 187 215 206
15 13 14 14 14 14 12 10 8 6 2 57 87 49 304 36 52 20 93 135 153 155 68 89 120 129 171 173 173 225 232 208 176 150 145 204 153 268 229 215 191 182 188 165 132 256 238
15 10 11 8 4 5 8 7 5 5 12 116 90 260 332 74 86 45 308 24 83 141 195 154 180 189 173 198 252 201 205 234 174 151 168 174 286 327 339 3 35 229 205 185 131 108 217
16 11 7 8 3 0 1 1 1 359 9 83 76 35 337 47 64 117 131 153 268 313 271 194 198 118 132 217 224 228 236 206 182 189 163 153 193 207 210 208 171 238 229 209 166 170 211
6 7 7 2 2 2 360 357 356 359 19 91 35 144 181 334 357 69 97 149 166 253 261 187 286 216 179 224 215 217 224 162 179 209 137 152 244 217 255 261 256 256 250 235 219 223 211
3 352 355 359 1 2 0 358 357 356 23 78 94 102 9 143 314 29 348 201 200 259 161 234 218 193 201 212 203 206 164 184 210 122 163 176 274 305 282 259 246 253 246 236 238 241 253
8 1 353 352 358 359 360 4 6 5 26 80 334 356 110 333 62 89 229 201 214 156 217 194 192 183 233 242 232 234 216 204 188 161 187 167 214 352 270 310 302 279 236 209 205 207 219
328 346 346 348 350 0 357 1 12 27 57 112 165 96 61 280 177 208 209 195 226 228 243 210 166 162 229 156 312 71 179 237 192 208 170 147 161 200 282 327 327 238 206 177 206 231 217
293 309 331 342 344 350 354 352 8 28 44 84 127 90 105 288 230 287 230 223 284 297 242 240 243 213 96 44 347 333 334 296 227 217 205 168 139 257 261 269 289 288 152 157 176 281 215
312 317 321 334 341 343 341 344 351 18 62 83 96 125 97 89 253 303 306 197 206 219 322 234 46 67 62 85 74 261 242 245 235 143 60 118 104 159 153 269 257 257 156 126 128 284 207
303 288 299 307 335 331 342 336 336 296 161 113 235 165 109 200 265 168 226 232 128 124 227 276 194 150 70 136 215 213 259 187 216 184 173 153 184 216 224 262 276 250 235 99 282 249 139
287 271 270 282 304 309 316 323 320 297 195 156 243 186 171 224 275 206 243 189 148 201 193 167 48 182 91 182 206 232 220 234 232 183 182 176 161 193 186 232 268 156 80 174 222 275 273
275 272 258 271 278 292 291 299 306 309 240 167 255 161 141 213 265 236 241 241 229 209 170 223 266 169 187 180 212 223 242 224 203 265 133 233 196 180 192 220 246 217 236 236 290 261 268